Regional Weather Roundup
Issued by NWS

Home | Current Version | Previous Version | Graphics & Text | Print | Product List | Glossary On
Versions: 1 2 3 4 5 6 7 8 9 10 11 12 13 14 15 16 17 18 19 20 21 22 23 24 25 26 27 28 29 30 31 32 33 34 35 36 37 38 39 40 41 42 43 44 45 46 47 48 49 50
000
ASUS43 KDMX 050407
RWRIA

WEATHER ROUNDUP FOR IOWA
NATIONAL WEATHER SERVICE DES MOINES IA
1100 PM CDT SAT JUL 04 2015

NOTE: "FAIR" INDICATES FEW OR NO CLOUDS BELOW 12,000 FEET WITH NO
SIGNIFICANT WEATHER AND/OR OBSTRUCTIONS TO VISIBILITY.

* - THESE STATIONS ARE NOT NWS STATIONS...THUS NOT UNDER NWS
QUALITY CONTROL.  THEY ALSO DO NOT REPORT WEATHER SUCH
AS PRECIPITATION OR FOG.

IAZ001>003-012>014-020>022-031>034-043>046-050500-
   NORTHWEST IOWA

CITY           SKY/WX    TMP DP  RH WIND       PRES   REMARKS
CARROLL *      CLOUDY    64  61  88 S7        29.96R
CHEROKEE *     CLEAR     66  63  88 S7        29.95R
DENISON *      PTCLDY    64  61  88 SE5       29.95R
LE MARS *      CLEAR     68  64  88 SE8       29.93S
ORANGE CITY *  CLEAR     66  61  82 S6        29.94R
SHELDON *      PTCLDY    66  66 100 SE8       29.93R
SIOUX CITY     CLEAR     72  62  71 SE10      29.91R
SPENCER        CLEAR     65  58  78 S8        29.95R
STORM LAKE *   CLEAR     64  61  88 S8        29.97R
$$

IAZ055>058-069>071-079>083-090>094-050500-
   SOUTHWEST IOWA

CITY           SKY/WX    TMP DP  RH WIND       PRES   REMARKS
ATLANTIC *     CLOUDY    66  61  82 CALM      29.97R
AUDUBON *      CLEAR     63  57  82 CALM      29.98R
CLARINDA *     CLEAR     66  64  94 CALM      29.99R
COUNCIL BLFS *   N/A     68  63  83 S9        29.96R
CRESTON *      CLEAR     68  61  77 S6        29.99R
HARLAN  *      CLEAR     64  64 100 SE3       30.00R
LAMONI         PTCLDY    71  62  73 SE9       29.99R
RED OAK *      PTCLDY    68  63  83 CALM      29.97R
SHENANDOAH *   PTCLDY    68  63  83 S5        29.97R
$$

IAZ047>049-059>061-072>074-084-050500-
   CENTRAL IOWA

CITY           SKY/WX    TMP DP  RH WIND       PRES   REMARKS
AMES           CLEAR     63  60  90 S6        29.98R
ANKENY *       CLEAR     66  63  88 CALM      29.98R
CHARITON *     CLEAR     66  61  82 SE6       29.99S
DES MOINES     PTCLDY    70  60  70 S7        29.98R
GRINNELL*      CLEAR     66  61  82 SE7       30.01R
KNOXVILLE *    CLEAR     68  63  83 SE6       29.98R
MARSHALLTOWN   CLEAR     64  59  83 SE3       29.98R
PELLA *        CLEAR     68  64  88 SE5       30.00R
PERRY *          N/A     64  61  88 S5        29.98R
$$

IAZ004>006-015-016-023>025-035-036-050500-
   NORTH CENTRAL IOWA

CITY           SKY/WX    TMP DP  RH WIND       PRES   REMARKS
ALGONA *       PTCLDY    70  61  73 S9        29.96R
CLARION *      CLEAR     66  61  82 SE9       29.97R
ESTHERVILLE    CLEAR     64  59  83 S7        29.96R
FORT DODGE *   CLEAR     70  59  68 S5        29.97S
MASON CITY     CLEAR     63  60  90 S7        29.99R
FOREST CITY *  CLEAR     61  59  94 SE7       29.97R
IOWA FALLS *     N/A     64  59  82 SE6       30.00R
$$

IAZ007>011-017>019-026>030-037>042-050>054-066-050500-
   NORTHEAST IOWA

CITY           SKY/WX    TMP DP  RH WIND       PRES   REMARKS
CEDAR RAPIDS   CLEAR     65  63  93 SE3       30.00R
CHARLES CITY * CLEAR     64  64 100 S8        29.99R
CLINTON *      CLEAR     66  61  82 S5        30.04S
DECORAH *        N/A    N/A N/A N/A MISG        N/A
DUBUQUE        CLEAR     65  61  87 S6        30.02R
MONTICELLO *   CLEAR     64  64 100 CALM      30.01R
OELWEIN *      CLEAR     64  63  94 SE6       30.00S
WATERLOO       CLEAR     67  61  81 S5        29.98R
$$

IAZ064-065-067-068-078-050500-
   EAST CENTRAL IOWA

CITY           SKY/WX    TMP DP  RH WIND       PRES   REMARKS
DAVENPORT      CLEAR     66  60  81 SE5       30.02R
IOWA CITY      CLEAR     65  61  87 SE5       30.01R
MT. PLEASANT * CLEAR     68  59  73 SE5       30.01S
MUSCATINE *    CLEAR     64  63  94 CALM      30.02R
QUAD CITIES    CLEAR     67  61  81 CALM      30.01S
$$

IAZ062-063-075>077-085>089-095>099-050500-
   SOUTHEAST IOWA

CITY           SKY/WX    TMP DP  RH WIND       PRES   REMARKS
BURLINGTON     CLEAR     69  64  84 SE6       30.01S
FAIRFIELD *    CLEAR     66  61  82 SE6       30.01R
FORT MADISON * CLEAR     64  63  94 SE5       30.02S
KEOKUK *       CLEAR     68  66  94 E3        30.01R
OSKALOOSA *      N/A     64  63  94 SE3       30.01R
CENTERVILLE *  CLEAR     64  63  94 SE3       30.02R
OTTUMWA        CLEAR     66  62  87 SE6       29.98R
WASHINGTON *   CLEAR     64  63  94 SE6       30.02S
$$

ABBREVIATIONS USED IN REMARKS
   TC - TEMPERATURES IN CELSIUS
  WCI - WIND CHILL INDEX
   HX - HEAT INDEX
  VSB - VISIBILITY
$$




USA.gov is the U.S. government's official web portal to all federal, state and local government web resources and services.